Retour au catalogue

ECHO 1 DEB

METAL OBJ

ActifLEO
NORAD 51·DEBRIS·🇺🇸 United States

Lancé Aug 12, 1960 depuis Cape Canaveral Space Force Station

Loading…

Prochains Passages (prochaines 24 heures)

TLE

FraisSource: Space-Track

Époque: Sep 7, 2026, 03:21 UTC

1 00051U 60009C   26250.13997618 -.00000010  00000-0  73924-3 0  9990
2 00051  47.2112 155.7637 0108385  79.6339 281.6646 12.18383881941168

Suivez ECHO 1 DEB en temps réel avec AllMySat

Download on the App Store